Flag for Dominican Republic Weather past 2 weeks in Santiago de los Caballeros, Dominican Republic

Now
90 °F

Scattered clouds.


Feels Like: 96 °F
Forecast: 73 / 90 °F
Wind: 14 mph from East

Location: Santiago

Current Time: Sep 20, 2014 at 3:03:48 PM

Latest Report: Sep 20, 2014 at 2:00 PM


Visibility: N/A

Pressure: 29.89 "Hg

Humidity: 55%

Dew point: 72 °F

Location of Santiago de los CaballerosLocation

Historic Weather in Santiago de los Caballeros — Graph

°F

Santiago de los Caballeros temperature yesterday

Maximum temperature yesterday: 91 °F (at 3:00 PM)
Minimum temperature yesterday: 73 °F (at 4:00 AM)
Average temperature yesterday: 79 °F

Past Weeks' High & Low Weather Summary

 TemperatureHumidityPressure
High91 °F (Sep 10, 3:00 PM)100% (Sep 6, 12:00 AM)30.09 "Hg (Sep 6, 12:00 AM)
Low70 °F (Sep 6, 5:00 PM)46% (Sep 13, 4:00 PM)29.86 "Hg (Sep 17, 4:00 PM)
Average79 °F83%29.97 "Hg
* Reported Sep 5 2:00 PM — Sep 20 2:00 PM, Santiago de los Caballeros, Weather by CustomWeather, © 2014

Note: Actual official high and low records may vary slightly from our data, if they occured in-between our weather recording intervals... More about our weather records

Advertising

Santiago de los Caballeros weather history for previous 24 hours

 ConditionsComfort  
Time TempWeatherWind HumidityBarometerVisibility
2:00 PM
Sep 20
90 °FScattered clouds.14 mph55%29.89 "HgN/A
9:00 AM77 °FScattered clouds.6 mph100%29.98 "HgN/A
8:00 AM75 °FFog.5 mph89%29.95 "Hg3 mi
7:00 AM72 °FScattered clouds.No wind100%29.95 "HgN/A
6:00 AM72 °FPassing clouds.No wind100%29.95 "HgN/A
5:00 AM72 °FPassing clouds.No wind100%29.92 "HgN/A
4:00 AM72 °FPassing clouds.No wind100%29.92 "HgN/A
3:00 AM72 °FPassing clouds.No wind100%29.92 "HgN/A
2:00 AM73 °FPassing clouds.6 mph94%29.95 "HgN/A
1:00 AM75 °FPassing clouds.6 mph89%29.95 "HgN/A
12:00 AM73 °FPassing clouds.5 mph100%29.98 "HgN/A
11:00 PM
Sep 19
75 °FPassing clouds.5 mph89%29.98 "HgN/A
10:00 PM73 °FPassing clouds.5 mph94%29.98 "HgN/A
9:00 PM73 °FPassing clouds.5 mph94%29.98 "HgN/A
8:00 PM73 °FPassing clouds.5 mph94%29.95 "HgN/A
7:00 PM73 °FLight rain. Passing clouds.6 mph94%29.92 "Hg5 mi
6:00 PM73 °FLight rain. More clouds than sun.16 mph94%29.92 "Hg3 mi
5:00 PM90 °FPassing clouds.13 mph59%29.86 "HgN/A
4:00 PM91 °FPassing clouds.7 mph52%29.86 "HgN/A
3:00 PM91 °FPassing clouds.10 mph52%29.86 "HgN/A
Weather by CustomWeather, © 2014

See weather overviewHow to use our weather pages